Home > Time Zones > World Clock > Weather > Iran > Gorgan > Past weeks

Flag for Iran Weather past 2 weeks in Gorgan, Iran

Now
45 °F

Light rain. Mostly cloudy.


Feels Like: 42 °F
Forecast: 35 / 63 °F
Wind: 5 mph from Northeast

Location: Gorgan Airport

Current Time: Jan 31, 2015 at 3:58:59 PM

Latest Report: Jan 31, 2015 at 3:30 PM


Visibility: 4 mi

Pressure: 30.21 "Hg

Humidity: 87%

Dew point: 41 °F

Location of GorganLocation

Historic Weather in Gorgan — Graph

°F

Gorgan temperature yesterday

Maximum temperature yesterday: 59 °F (at 2:30 PM)
Minimum temperature yesterday: 37 °F (at 7:30 AM)
Average temperature yesterday: 48 °F

Past Weeks' High & Low Weather Summary

 TemperatureHumidityPressure
High59 °F (Jan 30, 2:30 PM)100% (Jan 16, 10:30 PM)30.57 "Hg (Jan 16, 10:30 PM)
Low25 °F (Jan 21, 7:30 AM)44% (Jan 22, 1:30 PM)29.83 "Hg (Jan 29, 4:30 AM)
Average43 °F84%30.27 "Hg
* Reported Jan 16 2:30 PM — Jan 31 2:30 PM, Gorgan, Weather by CustomWeather, © 2014

Note: Actual official high and low records may vary slightly from our data, if they occured in-between our weather recording intervals... More about our weather records

Advertising

Gorgan weather history for previous 24 hours

 ConditionsComfort  
Time TempWeatherWind HumidityBarometerVisibility
2:30 PM
Jan 31
45 °FLight rain. More clouds than sun.7 mph87%30.18 "Hg4 mi
1:30 PM48 °FMore clouds than sun.18 mph87%30.18 "HgN/A
12:30 PM52 °FBroken clouds.12 mph77%30.15 "HgN/A
11:30 AM52 °FPartly sunny.7 mph67%30.12 "HgN/A
10:30 AM50 °FScattered clouds.5 mph82%30.12 "Hg4 mi
9:30 AM46 °FLight rain. Broken clouds.No wind93%30.12 "Hg4 mi
8:30 AM46 °FRain. Fog.12 mph93%30.15 "Hg2 mi
7:30 AM46 °FRain showers. Fog.25 mph93%30.12 "Hg1 mi
6:30 AM46 °FLight rain. Fog.21 mph93%30.04 "Hg2 mi
5:30 AM45 °FFog.14 mph93%29.95 "Hg3 mi
4:30 AM46 °FFog.16 mph93%29.92 "Hg2 mi
2:30 AM41 °FFog.9 mph93%29.92 "Hg2 mi
1:30 AM39 °FFog.5 mph100%29.92 "Hg2 mi
12:30 AM41 °FFog.7 mph100%29.95 "Hg2 mi
11:30 PM
Jan 30
41 °FFog.No wind93%29.98 "Hg2 mi
10:30 PM39 °FFog.5 mph100%30.01 "Hg3 mi
9:30 PM43 °FFog.5 mph87%30.01 "Hg3 mi
8:30 PM45 °FPassing clouds.No wind93%30.04 "Hg4 mi
7:30 PM46 °FPassing clouds.7 mph87%30.07 "Hg4 mi
6:30 PM48 °FPassing clouds.No wind82%30.07 "Hg4 mi
5:30 PM54 °FScattered clouds.7 mph77%30.07 "Hg4 mi
4:30 PM57 °FScattered clouds.7 mph63%30.07 "Hg4 mi
3:30 PM59 °FScattered clouds.7 mph55%30.04 "Hg3 mi
Weather by CustomWeather, © 2014

See weather overviewHow to use our weather pages